Location: Cabrera Baja
(40.4089°N, 4.3354°W)
Time: 03:27:07
(UTC+00:00)

Cosmos 1869 Rocket - Pass Details

Date: 14 July 2020
Orbit: 605 x 633 km, 82.5° (Epoch: 03 August)

Event Time Altitude Azimuth Distance (km) Brightness Sun altitude
Exits shadow 02:04:43 75° 287° (WNW) 631 3.4 -23.6°
Drops below altitude 10° 02:09:01 10° 4° (N) 1,966 7.0 -23.3°
Sets 02:11:15 0° 6° (N) 2,877 8.2 -23.1°
